This demonstration page uses our WeatherBlox Daily Observations layout. Learn more.

Left ArrowRight Arrow

36.17497, -115.13722

Hourly Observations for October 26, 2019

Temp ( °F °C ) Dew Point ( °F °C ) Humidity (%) Winds ( mph kmh ) Pressure ( in mb ) Visibility ( mi km ) Precip ( " mm )
12:53 am 00:53 Clear 59 15 25 -3.9 27 27 WNW 6 9 30.02 1017 10 16.0934 N/A
1:53 am 01:53 Clear 59 15 23 -5 25 25 W 6 9 30 1016 10 16.0934 N/A
2:53 am 02:53 Clear 56 13.3 24 -4.4 29 29 NW 5 7 29.98 1015 10 16.0934 N/A
3:53 am 03:53 Clear 60 15.6 20 -6.7 21 21 NW 7 11 29.96 1015 10 16.0934 N/A
4:53 am 04:53 Clear 57 13.9 22 -5.6 26 26 NW 3 6 29.96 1015 10 16.0934 N/A
5:53 am 05:53 Clear 56 13.3 20 -6.7 24 24 WNW 7 11 29.95 1014 10 16.0934 N/A
6:53 am 06:53 Clear 55 12.8 23 -5 29 29 WNW 5 7 29.95 1014 10 16.0934 N/A
7:53 am 07:53 Sunny 56 13.3 23 -5 28 28 N 5 7 29.95 1014 10 16.0934 N/A
8:53 am 08:53 Sunny 63 17.2 22 -5.6 21 21 N 5 7 29.96 1015 10 16.0934 N/A
9:53 am 09:53 Sunny 67 19.4 21 -6.1 17 17 N N/A 29.94 1014 10 16.0934 N/A
10:53 am 10:53 Sunny 69 20.6 21 -6.1 16 16 N N/A 29.92 1013 10 16.0934 N/A
11:53 am 11:53 Sunny 71 21.7 20 -6.7 14 14 VRB 3 6 29.89 1012 10 16.0934 N/A
12:53 pm 12:53 Sunny 73 22.8 21 -6.1 14 14 VRB 5 7 29.85 1011 10 16.0934 N/A
1:53 pm 13:53 Sunny 76 24.4 23 -5 14 14 VRB 3 6 29.8 1009 10 16.0934 N/A
2:53 pm 14:53 Sunny 79 26.1 23 -5 12 12 VRB 5 7 29.76 1008 10 16.0934 N/A
3:53 pm 15:53 Sunny 79 26.1 24 -4.4 13 13 SE 3 6 29.73 1007 10 16.0934 N/A
4:53 pm 16:53 Sunny 80 26.7 23 -5 12 12 NNE 5 7 29.71 1006 10 16.0934 N/A
5:53 pm 17:53 Clear 77 25 23 -5 13 13 ENE 3 6 29.7 1006 10 16.0934 N/A
6:53 pm 18:53 Clear 73 22.8 24 -4.4 16 16 N N/A 29.69 1005 10 16.0934 N/A
7:53 pm 19:53 Clear 70 21.1 24 -4.4 18 18 NE 8 13 29.68 1005 10 16.0934 N/A
8:53 pm 20:53 Clear 67 19.4 24 -4.4 20 20 NW 6 9 29.67 1005 10 16.0934 N/A
9:53 pm 21:53 Clear 64 17.8 24 -4.4 22 22 NW 7 11 29.65 1004 10 16.0934 N/A
10:53 pm 22:53 Clear 63 17.2 25 -3.9 24 24 WNW 6 9 29.65 1004 10 16.0934 N/A
11:53 pm 23:53 Clear 60 15.6 25 -3.9 26 26 NNW 5 7 29.63 1003 10 16.0934 N/A

Powered by AerisWeather